[[{"header":{"parameterUnit":"m.s-1","parameterCategory":1,"la1":30.2991,"la2":30.254,"lo1":-89.0895,"lo2":-89.0444,"dy":0.0017,"dx":0.0017,"nx":28,"ny":28,"refTime":"2024-10-05T03:00:00:Z","depth":0,"parameterNumber":2,"parameterNumberName":"U-component_of_WINDS"},"data":[0,0,0,0,0,0,0,0,0,0,0,0,0,0,0,0,0,0,0,0,0,0,0,0,0,0,0,0,0,0,0,0,0,0,0,0,0,0,0,0,0,0,0,0,0,0,0,0,0,0,0,0,0,0,0,0,0,0,-2.5808,-2.5809,0,-2.592,-2.5922,-2.5923,-2.5824,-2.582,-2.5816,-2.5812,-2.5933,-2.594,-2.5946,0,0,0,0,0,0,0,0,0,0,0,0,0,-2.5513,-2.5519,-2.5808,-2.5809,-2.5811,-2.592,-2.5922,-2.5923,-2.5825,-2.582,-2.5815,-2.581,-2.593,-2.5939,-2.5947,0,0,0,0,0,0,0,0,0,0,0,0,0,-2.5635,-2.5521,-2.5808,-2.5775,-2.5773,-2.592,-2.5922,-2.5924,-2.5826,-2.582,-2.5814,-2.5808,-2.5928,-2.5938,-2.5948,-2.6135,0,0,-2.598,-2.5985,0,0,0,0,0,0,0,0,-2.5628,-2.5646,-2.5778,-2.5777,-2.5775,-2.5852,-2.5862,-2.5995,-2.5828,-2.5806,-2.5812,-2.5805,-2.5911,-2.5923,-2.5957,-2.6141,-2.6146,-2.5981,-2.5988,-2.5992,-2.5995,0,0,0,0,0,0,0,-2.562,-2.564,-2.5853,-2.578,-2.5779,-2.5756,-2.5766,-2.5886,-2.5892,-2.5807,-2.5801,-2.5815,-2.5909,-2.5947,-2.5959,-2.6148,-2.5981,-2.599,-2.5997,-2.6001,-2.6492,-2.6498,0,0,0,0,0,0,-2.5614,-2.5634,-2.5849,-2.5856,-2.5685,-2.5766,-2.5778,-2.5834,-2.589,-2.5893,-2.582,-2.581,-2.5932,-2.5947,-2.5963,-2.6188,-2.5992,-2.6002,-2.6008,-2.6485,-2.6494,-2.6501,0,0,0,0,0,0,-2.5608,-2.5634,-2.5844,-2.5743,-2.5768,-2.5778,-2.5841,-2.5839,-2.5877,-2.5899,-2.59,-2.5858,-2.5928,-2.5948,-2.6093,-2.6191,-2.6007,-2.6016,-2.6477,-2.6488,-2.6497,-2.6637,0,0,0,0,0,0,-2.56,-2.5632,-2.5703,-2.5745,-2.5774,-2.5972,-2.5847,-2.5846,-2.5895,-2.5883,-2.5935,-2.5938,-2.5925,-2.6078,-2.6104,-2.6202,-2.6024,-2.6469,-2.6482,-2.6494,-2.6624,-2.6651,-2.6674,0,0,0,0,0,-2.559,-2.5738,-2.5707,-2.5733,-2.5862,-2.5977,-2.5994,-2.5974,-2.5903,-2.5975,-2.5989,-2.5936,-2.6175,-2.6094,-2.6122,-2.6224,-2.6463,-2.6478,-2.6493,-2.6613,-2.6646,-2.6673,0,0,0,0,0,0,-2.5709,-2.5744,-2.5709,-2.5875,-2.5924,-2.596,-2.605,-2.6009,-2.6081,-2.6067,-2.6041,-2.6054,-2.6207,-2.6229,-2.6138,-2.6409,-2.6308,-2.6329,-2.6389,-2.6421,-2.6445,-2.6438,-2.6033,0,0,0,0,0,-2.5754,-2.5844,-2.5869,-2.6014,-2.604,-2.6041,-2.6091,-2.6071,-2.6122,-2.6142,-2.6167,-2.6219,-2.6306,-2.6364,-2.6444,-2.6625,-2.6637,-2.671,-2.6735,-2.6755,-2.6775,-2.6875,-2.6909,-2.6551,-2.6551,-2.655,0,0,-2.585,-2.5879,-2.5938,-2.6039,-2.6074,-2.617,-2.6059,-2.6165,-2.6236,-2.6159,-2.6297,-2.6317,-2.6374,-2.6538,-2.6611,-2.6562,-2.6876,-2.6775,-2.6791,-2.68,-2.6894,-2.6928,-2.6958,-2.6561,-2.6559,-2.6558,0,0,-2.6073,-2.6103,-2.6228,-2.6265,-2.6319,-2.6319,-2.6349,-2.6392,-2.6402,-2.6539,-2.6484,-2.6569,-2.6718,-2.6761,-2.6803,-2.7041,-2.6997,-2.7068,-2.72,-2.7297,-2.7326,-2.7351,-2.7439,-2.747,-2.7087,-2.7088,-2.7088,0,-2.6186,-2.6325,-2.6298,-2.6407,-2.6454,-2.6386,-2.6514,-2.6552,-2.6631,-2.6666,-2.6607,-2.6794,-2.6827,-2.7001,-2.706,-2.7094,-2.713,-2.7064,-2.7323,-2.7348,-2.7371,-2.7455,-2.7488,-2.7096,-2.7095,-2.7094,-2.7093,0,-2.6462,-2.656,-2.6654,-2.6731,-2.6788,-2.6906,-2.6898,-2.6959,-2.6934,-2.6941,-2.7083,-2.712,-2.7208,-2.7247,-2.7224,-2.7419,-2.7387,-2.7326,-2.7225,-2.7414,-2.7493,-2.7524,-2.7108,-2.7105,-2.7103,-2.7101,0,0,-2.6767,-2.6825,-2.6861,-2.6895,-2.6949,-2.7026,-2.7141,-2.7225,-2.728,-2.7335,-2.7434,-2.7561,-2.7506,-2.7553,-2.7534,-2.7619,-2.7809,-2.7548,-2.7549,-2.7599,-2.8029,-2.8077,-2.8114,-2.7778,-2.7784,-2.7789,-2.8026,0,-2.6994,-2.7194,-2.7172,-2.7363,-2.7454,-2.739,-2.7491,-2.7536,-2.7545,-2.7625,-2.7634,-2.7726,-2.7644,-2.7673,-2.7754,-2.7769,-2.7896,-2.7751,-2.7872,-2.7877,-2.7864,-2.8155,-2.8205,-2.8427,-2.8056,-2.8061,-2.8065,0,-2.7287,-2.7353,-2.7553,-2.7593,-2.7631,-2.7722,-2.7798,-2.7874,-2.7924,-2.7925,-2.7977,-2.7943,-2.8061,-2.7954,-2.8117,-2.8019,-2.8067,-2.8082,-2.809,-2.8104,-2.7985,-2.818,-2.8497,-2.8532,-2.8112,-2.8108,-2.8105,0,-2.7494,-2.7631,-2.7769,-2.78,-2.785,-2.7916,-2.794,-2.7984,-2.8037,-2.8103,-2.8137,-2.8217,-2.8262,-2.8325,-2.8315,-2.8237,-2.8483,-2.8374,-2.8489,-2.849,-2.8547,-2.8544,-2.888,-2.8572,-2.8571,-2.8571,-2.857,0,-2.7752,-2.7878,-2.7862,-2.7948,-2.8087,-2.806,-2.8199,-2.8215,-2.8255,-2.8344,-2.8293,-2.8377,-2.8356,-2.8441,-2.8433,-2.8572,-2.8591,-2.8597,-2.8594,-2.8604,-2.8604,-2.8637,-2.8623,-2.8579,-2.8577,-2.8576,-2.8574,0,-2.8008,-2.8002,-2.8148,-2.8183,-2.8195,-2.8296,-2.8327,-2.8408,-2.8411,-2.8524,-2.8549,-2.8556,-2.8652,-2.8647,-2.8757,-2.8751,-2.8923,-2.89,-2.8906,-2.8903,-2.9019,-2.9009,-2.9391,-2.9441,-2.9098,-2.9101,-2.9104,0,-2.8175,-2.827,-2.8315,-2.8369,-2.8398,-2.8487,-2.8539,-2.8517,-2.8574,-2.8639,-2.8713,-2.8804,-2.8877,-2.9035,-2.9051,-2.9134,-2.9116,-2.9244,-2.9128,-2.9135,-2.9122,-2.9118,-2.9128,-2.9268,-2.9272,-2.9275,-2.9277,0,-2.8474,-2.8466,-2.8543,-2.862,-2.8683,-2.8743,-2.8797,-2.8846,-2.8829,-2.8896,-2.8993,-2.9049,-2.9161,-2.9254,-2.9333,-2.936,-2.9318,-2.9313,-2.9344,-2.9357,-2.9358,-2.9362,-2.8972,-2.9305,-2.9302,-2.93,-2.9299,-2.9298,-2.8692,-2.8774,-2.8819,-2.8907,-2.8944,-2.8996,-2.9075,-2.9087,-2.9167,-2.9255,-2.9237,-2.9347,-2.9396,-2.9499,-2.9533,-2.962,-2.9575,-2.962,-2.9632,-2.9644,-2.9659,-2.9341,-2.9634,-2.9633,-2.9633,-2.9632,-2.9631,0,-2.8991,-2.9016,-2.9096,-2.9173,-2.9243,-2.9193,-2.9251,-2.9313,-2.941,-2.9458,-2.953,-2.9643,-2.9732,-2.9754,-2.984,-2.9906,-2.9889,-2.993,-2.9927,-2.9934,-2.9693,-2.9659,-2.9943,-2.9943,-2.9943,-2.9942,-2.9942,-2.9942,-2.9155,-2.9291,-2.9289,-2.9444,-2.9468,-2.9575,-2.9612,-2.9661,-2.9699,-2.9827,-2.99,-2.9912,-2.9951,-3.0039,-3.012,-3.0124,-3.016,-3.021,-3.0207,-2.9982,-2.9951,-2.9921,-2.9889,-3.0217,-3.0217,-3.0441,-3.0443,-3.0445]},{"header":{"parameterUnit":"m.s-1","parameterCategory":1,"la1":30.2991,"la2":30.254,"lo1":-89.0895,"lo2":-89.0444,"dy":0.0017,"dx":0.0017,"nx":28,"ny":28,"refTime":"2024-10-05T03:00:00:Z","depth":0,"parameterNumber":3,"parameterNumberName":"V-component_of_WINDS"},"data":[0,0,0,0,0,0,0,0,0,0,0,0,0,0,0,0,0,0,0,0,0,0,0,0,0,0,0,0,0,0,0,0,0,0,0,0,0,0,0,0,0,0,0,0,0,0,0,0,0,0,0,0,0,0,0,0,0,0,-3.1238,-3.1238,0,-3.1262,-3.1263,-3.1263,-3.1232,-3.1231,-3.123,-3.1229,-3.1251,-3.1253,-3.1255,0,0,0,0,0,0,0,0,0,0,0,0,0,-3.1162,-3.1163,-3.1238,-3.1238,-3.1239,-3.1262,-3.1263,-3.1263,-3.1232,-3.1231,-3.123,-3.1228,-3.1251,-3.1253,-3.1255,0,0,0,0,0,0,0,0,0,0,0,0,0,-3.1191,-3.1164,-3.1238,-3.1226,-3.1225,-3.1262,-3.1263,-3.1263,-3.1233,-3.1231,-3.1229,-3.1228,-3.125,-3.1253,-3.1255,-3.1304,0,0,-3.1262,-3.1264,0,0,0,0,0,0,0,0,-3.119,-3.1194,-3.1228,-3.1227,-3.1226,-3.1242,-3.1244,-3.1276,-3.1233,-3.123,-3.1229,-3.1227,-3.125,-3.1252,-3.126,-3.1305,-3.1306,-3.1263,-3.1264,-3.1265,-3.1266,0,0,0,0,0,0,0,-3.1188,-3.1193,-3.1247,-3.1228,-3.1227,-3.1219,-3.1221,-3.125,-3.1249,-3.123,-3.1228,-3.1231,-3.1249,-3.1258,-3.126,-3.1306,-3.1263,-3.1265,-3.1266,-3.1267,-3.139,-3.1391,0,0,0,0,0,0,-3.1187,-3.1191,-3.1247,-3.1248,-3.1204,-3.1221,-3.1224,-3.1239,-3.1248,-3.1248,-3.1233,-3.123,-3.1254,-3.1258,-3.1261,-3.1317,-3.1265,-3.1267,-3.1269,-3.1388,-3.139,-3.1392,0,0,0,0,0,0,-3.1186,-3.1193,-3.1246,-3.1219,-3.1225,-3.1225,-3.1241,-3.124,-3.1249,-3.125,-3.125,-3.1242,-3.1253,-3.1258,-3.1293,-3.1318,-3.1269,-3.1271,-3.1386,-3.1389,-3.1391,-3.1431,0,0,0,0,0,0,-3.1184,-3.1192,-3.1212,-3.122,-3.1227,-3.1278,-3.1243,-3.1242,-3.1254,-3.125,-3.1259,-3.1259,-3.1252,-3.129,-3.1295,-3.132,-3.1273,-3.1384,-3.1387,-3.139,-3.1428,-3.1435,-3.1441,0,0,0,0,0,-3.1181,-3.1222,-3.1213,-3.122,-3.1251,-3.128,-3.1284,-3.1276,-3.1256,-3.1275,-3.1275,-3.1259,-3.1314,-3.1293,-3.13,-3.1326,-3.1382,-3.1386,-3.139,-3.1425,-3.1434,-3.1441,0,0,0,0,0,0,-3.1216,-3.1223,-3.1213,-3.1258,-3.1268,-3.1275,-3.1298,-3.1286,-3.1302,-3.1298,-3.1286,-3.1289,-3.1326,-3.133,-3.1306,-3.1372,-3.1345,-3.135,-3.1369,-3.1377,-3.1384,-3.1382,-3.1275,0,0,0,0,0,-3.1229,-3.1253,-3.1257,-3.1296,-3.1302,-3.1299,-3.1311,-3.1304,-3.1315,-3.1319,-3.1322,-3.1332,-3.1352,-3.1365,-3.1383,-3.1428,-3.1429,-3.1449,-3.1456,-3.1462,-3.1466,-3.1489,-3.1497,-3.1405,-3.1405,-3.1405,0,0,-3.1256,-3.1262,-3.1278,-3.1303,-3.1311,-3.1334,-3.1303,-3.133,-3.1347,-3.1323,-3.1356,-3.1359,-3.1369,-3.1409,-3.1427,-3.1413,-3.1492,-3.1467,-3.1471,-3.1473,-3.1494,-3.1502,-3.151,-3.1408,-3.1407,-3.1407,0,0,-3.1316,-3.1324,-3.1357,-3.1365,-3.1377,-3.1375,-3.1383,-3.1391,-3.1392,-3.1425,-3.1408,-3.1427,-3.1462,-3.1469,-3.1478,-3.154,-3.1525,-3.1546,-3.1581,-3.1604,-3.1611,-3.1617,-3.1638,-3.1646,-3.1551,-3.1551,-3.1551,0,-3.1348,-3.1384,-3.1375,-3.1403,-3.1414,-3.1394,-3.1426,-3.1434,-3.1451,-3.1458,-3.1443,-3.1485,-3.149,-3.1531,-3.1546,-3.1554,-3.1562,-3.1545,-3.1611,-3.1617,-3.1623,-3.1642,-3.1651,-3.1554,-3.1553,-3.1553,-3.1553,0,-3.1421,-3.1446,-3.147,-3.1488,-3.1501,-3.1531,-3.1526,-3.1541,-3.1532,-3.1532,-3.1565,-3.1571,-3.159,-3.1599,-3.1591,-3.1639,-3.1629,-3.1613,-3.1584,-3.1634,-3.1652,-3.166,-3.1557,-3.1556,-3.1556,-3.1555,0,0,-3.1504,-3.1516,-3.1525,-3.1532,-3.1543,-3.1562,-3.159,-3.1609,-3.1621,-3.1633,-3.1655,-3.1685,-3.1669,-3.1678,-3.1671,-3.1691,-3.1738,-3.1671,-3.1671,-3.1682,-3.1789,-3.1801,-3.181,-3.1728,-3.173,-3.1731,-3.1788,0,-3.1564,-3.1613,-3.1606,-3.1653,-3.1675,-3.1656,-3.168,-3.1689,-3.1689,-3.1706,-3.1706,-3.1726,-3.1704,-3.171,-3.1729,-3.1728,-3.1759,-3.1724,-3.1748,-3.1749,-3.1745,-3.182,-3.1833,-3.1886,-3.1795,-3.1796,-3.1797,0,-3.164,-3.1655,-3.1705,-3.1711,-3.172,-3.1742,-3.1758,-3.1776,-3.1785,-3.1783,-3.1794,-3.1782,-3.1809,-3.1781,-3.1817,-3.1793,-3.1802,-3.1804,-3.1806,-3.1806,-3.1775,-3.1821,-3.1903,-3.191,-3.1809,-3.1808,-3.1807,0,-3.1694,-3.1727,-3.176,-3.1767,-3.1776,-3.1792,-3.1796,-3.1804,-3.1815,-3.1828,-3.1835,-3.1852,-3.186,-3.1873,-3.1866,-3.1846,-3.1902,-3.1874,-3.19,-3.1901,-3.1912,-3.1911,-3.1995,-3.192,-3.192,-3.192,-3.192,0,-3.1761,-3.1791,-3.1784,-3.1805,-3.1838,-3.1829,-3.1862,-3.1864,-3.187,-3.189,-3.1875,-3.1893,-3.1883,-3.1901,-3.1895,-3.1925,-3.1929,-3.1928,-3.1926,-3.1929,-3.1929,-3.1934,-3.1929,-3.1922,-3.1922,-3.1921,-3.1921,0,-3.1826,-3.1823,-3.1858,-3.1864,-3.1866,-3.189,-3.1894,-3.1912,-3.1911,-3.1936,-3.1941,-3.1938,-3.1958,-3.1952,-3.1974,-3.197,-3.2007,-3.2001,-3.2004,-3.2002,-3.2028,-3.2026,-3.2117,-3.2128,-3.2048,-3.2048,-3.2049,0,-3.1869,-3.1892,-3.19,-3.1912,-3.1917,-3.1937,-3.1949,-3.194,-3.1952,-3.1964,-3.1981,-3.1999,-3.2013,-3.2045,-3.2045,-3.2061,-3.2054,-3.2085,-3.2056,-3.2058,-3.2053,-3.2051,-3.2053,-3.209,-3.2091,-3.2092,-3.2093,0,-3.1943,-3.194,-3.1958,-3.1974,-3.1988,-3.2,-3.2011,-3.2022,-3.2014,-3.2028,-3.2048,-3.2059,-3.2081,-3.2099,-3.2113,-3.2116,-3.2103,-3.2102,-3.2108,-3.2111,-3.2111,-3.211,-3.2018,-3.2099,-3.2099,-3.2098,-3.2098,-3.2098,-3.1998,-3.2017,-3.2025,-3.2044,-3.2051,-3.2062,-3.2079,-3.2079,-3.2096,-3.2113,-3.2107,-3.213,-3.2137,-3.2155,-3.216,-3.2177,-3.2165,-3.2175,-3.2178,-3.218,-3.2183,-3.211,-3.218,-3.218,-3.218,-3.2179,-3.2179,0,-3.207,-3.2075,-3.2093,-3.2108,-3.2123,-3.211,-3.2121,-3.2133,-3.2154,-3.2162,-3.2176,-3.2199,-3.2216,-3.2216,-3.2232,-3.2245,-3.2239,-3.225,-3.2248,-3.2249,-3.2193,-3.2185,-3.2254,-3.2254,-3.2254,-3.2254,-3.2254,-3.2254,-3.211,-3.2141,-3.2139,-3.2173,-3.2177,-3.2199,-3.2206,-3.2215,-3.2221,-3.2247,-3.2261,-3.2262,-3.2267,-3.2282,-3.2297,-3.2297,-3.2303,-3.2315,-3.2312,-3.226,-3.2253,-3.2246,-3.2238,-3.2317,-3.2317,-3.2366,-3.2367,-3.2367]}]]